Tracking 30306 objects as of 22-Apr-2025
HD Live streaming from Space Station
objects crossing your sky now

STARLINK-33630

Track STARLINK-33630 now!
10-day predictions
STARLINK-33630 is classified as:


NORAD ID: 63477
Int'l Code: 2025-070T
Perigee: 350.1 km
Apogee: 352.2 km
Inclination: 43.0 °
Period: 91.4 minutes
Semi major axis: 6722 km
RCS: Unknown
Launch date: April 6, 2025
Source: United States (US)
Launch site: AIR FORCE EASTERN TEST RANGE (AFETR)
Your satellite tracking list
Your tracking list is empty




NASA's NSSDC Master Catalog

Two Line Element Set (TLE):
1 63477U 25070T   25111.91668981 -.01214686  00000-0 -88624-2 0  9999
2 63477  42.9998 281.1047 0001612 278.0049 254.7281 15.75222108  3727
Source of the keplerian elements: AFSPC